Terminal Aerodrome Forecast
Issued by NWS Jackson, MS

Home | Current Version | Previous Version | Text Only | Print | Product List | Glossary On
Versions: 1 2 3 4 5 6 7 8 9 10 11 12 13 14 15 16
000
FTUS44 KJAN 281120
TAFHBG
TAF
KHBG 281120Z 2812/0112 15005KT 1SM BR OVC002
     FM281400 17010KT 4SM BR OVC005
     FM281600 18013KT P6SM BKN007 OVC015
     FM281800 18014G23KT P6SM BKN025 OVC040
     FM010200 18010KT 6SM BR BKN010 OVC025=

USA.gov is the U.S. government's official web portal to all federal, state and local government web resources and services.